This demonstration page uses our WeatherBlox Daily Observations layout. Learn more.

Left ArrowRight Arrow

36.17497, -115.13722

Hourly Observations for September 16, 2015

Temp ( °F °C ) Dew Point ( °F °C ) Humidity (%) Winds ( mph kmh ) Pressure ( in mb ) Visibility ( mi km ) Precip ( " mm )
12:53 am 00:53 Clear 75 23.9 56 13.3 52 52 SW 15 24 29.80 1009 10 16 N/A
1:53 am 01:53 Clear 74 23.3 55 12.8 52 52 SW 22 35 29.80 1009 10 16 N/A
2:53 am 02:53 Clear 74 23.3 53 11.7 48 48 S 10 17 29.81 1010 10 16 N/A
3:53 am 03:53 Clear 74 23.3 50 10 43 43 SSW 12 19 29.82 1010 10 16 N/A
4:53 am 04:53 Clear 72 22.2 54 12.2 53 53 SSW 14 22 29.83 1010 10 16 N/A
5:53 am 05:53 Clear 71 21.7 51 10.6 49 49 SW 14 22 29.84 1010 10 16 N/A
6:53 am 06:53 Sunny 72 22.2 49 9.4 44 44 SSW 14 22 29.85 1011 10 16 N/A
7:53 am 07:53 Sunny 73 22.8 50 10 44 44 S 8 13 29.87 1012 10 16 N/A
8:53 am 08:53 Sunny 75 23.9 50 10 41 41 S 12 19 29.87 1012 10 16 N/A
9:53 am 09:53 Sunny 78 25.6 49 9.4 36 36 SW 16 26 29.89 1012 10 16 N/A
10:53 am 10:53 Sunny 80 26.7 51 10.6 37 37 SSW 18 30 29.89 1012 10 16 N/A
11:53 am 11:53 Sunny 81 27.2 49 9.4 33 33 SSW 18 30 29.87 1012 10 16 N/A
12:53 pm 12:53 Sunny 85 29.4 45 7.2 25 25 SSW 22 35 29.85 1011 10 16 N/A
1:53 pm 13:53 Sunny 85 29.4 46 7.8 26 26 SW 25 41 29.83 1010 10 16 N/A
2:53 pm 14:53 Sunny 86 30 42 5.6 21 21 SSW 21 33 29.81 1010 10 16 N/A
3:53 pm 15:53 Sunny 86 30 41 5 20 20 S 21 33 29.80 1009 10 16 N/A
4:53 pm 16:53 Sunny 85 29.4 44 6.7 24 24 SSW 17 28 29.79 1009 10 16 N/A
5:53 pm 17:53 Sunny 83 28.3 43 6.1 24 24 SW 22 35 29.79 1009 10 16 N/A
6:53 pm 18:53 Clear 81 27.2 42 5.6 25 25 SW 23 37 29.79 1009 10 16 N/A
7:53 pm 19:53 Clear 80 26.7 42 5.6 26 26 SW 17 28 29.81 1009 10 16 N/A
8:53 pm 20:53 Clear 79 26.1 40 4.4 25 25 SSW 14 22 29.82 1010 10 16 N/A
9:53 pm 21:53 Clear 78 25.6 41 5 27 27 SW 10 17 29.84 1011 10 16 N/A
10:53 pm 22:53 Clear 77 25 42 5.6 29 29 SW 8 13 29.83 1010 10 16 N/A
11:53 pm 23:53 Clear 77 25 37 2.8 24 24 SW 13 20 29.83 1010 10 16 N/A

Powered by AerisWeather